TimeCDT,TemperatureF,Dew PointF,Humidity,Sea Level PressureIn,VisibilityMPH,Wind Direction,Wind SpeedMPH,Gust SpeedMPH,PrecipitationIn,Events,Conditions,WindDirDegrees,DateUTC
12:53 AM,39.9,28.9,65,30.11,10.0,NNE,6.9,-,N/A,,Clear,30,2013-03-21 05:53:00
1:53 AM,41.0,28.0,60,30.11,10.0,NNE,6.9,-,N/A,,Clear,20,2013-03-21 06:53:00
2:53 AM,41.0,24.1,51,30.11,10.0,NNE,9.2,-,N/A,,Clear,20,2013-03-21 07:53:00
3:53 AM,39.9,21.0,47,30.11,10.0,NNE,8.1,-,N/A,,Clear,20,2013-03-21 08:53:00
4:53 AM,37.9,21.9,53,30.11,10.0,NNE,5.8,-,N/A,,Clear,30,2013-03-21 09:53:00
5:53 AM,36.0,21.0,55,30.12,10.0,NNE,5.8,-,N/A,,Clear,30,2013-03-21 10:53:00
6:53 AM,35.1,23.0,61,30.13,10.0,Calm,Calm,-,N/A,,Clear,0,2013-03-21 11:53:00
7:53 AM,37.0,23.0,57,30.14,10.0,ENE,3.5,-,N/A,,Clear,60,2013-03-21 12:53:00
8:53 AM,39.9,23.0,51,30.14,10.0,ENE,9.2,-,N/A,,Clear,70,2013-03-21 13:53:00
9:53 AM,41.0,21.9,47,30.14,10.0,ENE,9.2,-,N/A,,Clear,70,2013-03-21 14:53:00
10:53 AM,43.0,21.0,42,30.13,10.0,East,10.4,-,N/A,,Clear,80,2013-03-21 15:53:00
11:53 AM,46.0,21.9,39,30.10,10.0,ENE,10.4,-,N/A,,Clear,70,2013-03-21 16:53:00
12:53 PM,48.0,21.9,36,30.06,10.0,ENE,9.2,-,N/A,,Clear,70,2013-03-21 17:53:00
1:53 PM,48.0,21.9,36,30.03,10.0,ESE,10.4,-,N/A,,Clear,110,2013-03-21 18:53:00
2:53 PM,48.9,23.0,36,30.00,10.0,ESE,10.4,-,N/A,,Clear,110,2013-03-21 19:53:00
3:53 PM,50.0,25.0,38,29.97,10.0,East,8.1,-,N/A,,Scattered Clouds,80,2013-03-21 20:53:00
4:53 PM,50.0,25.0,38,29.97,10.0,Calm,Calm,-,N/A,,Overcast,0,2013-03-21 21:53:00
5:53 PM,48.9,28.0,44,29.94,10.0,ENE,5.8,-,0.00,Rain,Light Rain,70,2013-03-21 22:53:00
6:53 PM,48.9,26.1,41,29.91,10.0,ENE,8.1,-,0.00,,Overcast,70,2013-03-21 23:53:00
7:53 PM,48.0,28.9,48,29.91,10.0,ENE,9.2,-,0.00,,Overcast,60,2013-03-22 00:53:00
8:53 PM,48.0,33.1,56,29.92,10.0,ENE,9.2,-,0.00,Rain,Light Rain,60,2013-03-22 01:53:00
9:53 PM,48.0,32.0,54,29.91,10.0,East,8.1,-,0.00,,Overcast,80,2013-03-22 02:53:00
10:53 PM,48.0,34.0,58,29.91,10.0,ENE,8.1,-,0.00,,Overcast,70,2013-03-22 03:53:00
11:53 PM,46.9,35.1,63,29.91,10.0,ENE,8.1,-,0.00,Rain,Light Rain,70,2013-03-22 04:53:00